Regional Weather Roundup
Issued by NWS Newport/Morehead, NC

Current Version | Previous Version | Graphics & Text | Print | Product List | Glossary On
Versions: 1 2 3 4 5 6 7 8 9 10 11 12 13 14 15 16 17 18 19 20 21 22 23 24 25 26 27 28 29 30 31 32 33 34 35 36 37 38 39 40 41 42 43 44 45 46 47 48 49 50
703 ASUS42 KMHX 252113 RWRMHX WEATHER ROUNDUP FOR EASTERN NORTH CAROLINA NATIONAL WEATHER SERVICE NEWPORT/MOREHEAD CITY NC 500 PM EDT SUN SEP 25 2016 NOTE: "FAIR" INDICATES FEW OR NO CLOUDS BELOW 12,000 FEET WITH NO SIGNIFICANT WEATHER AND/OR OBSTRUCTIONS TO VISIBILITY NCZ015>017-031-032-045>047-102-103-252200- NORTH COAST CITY SKY/WX TMP DP RH WIND PRES REMARKS EDENTON CLOUDY 75 58 54 E5 30.12F ELIZABETH CITY PTSUNNY 73 56 54 NE12 30.13S KITTY HAWK NOT AVBL MANTEO MOSUNNY 72 56 58 NE10G17 30.13S $$ NCZ045>047-081-094-103-104-252200- CENTRAL COAST CITY SKY/WX TMP DP RH WIND PRES REMARKS FRISCO MOSUNNY 73 58 59 NE9G18 30.10F $$ NCZ095-097-098-100-101-252200- SOUTHERN COAST CITY SKY/WX TMP DP RH WIND PRES REMARKS BEAUFORT PTSUNNY 77 63 61 NE8G20 30.09S CEDAR ISLAND NOT AVBL JACKSONVILLE CLOUDY 76 67 73 NE9 30.08S PINEY ISLAND CLOUDY N/A N/A N/A NE13 30.10S WILMINGTON CLOUDY 77 70 79 E13 30.07S $$ NCZ011>013-027>030-043-044-078>080-089-090>093-098-252200- COASTAL PLAIN CITY SKY/WX TMP DP RH WIND PRES REMARKS AHOSKIE SUNNY 71 61 71 CALM 30.13S CLINTON PTSUNNY 79 71 77 NE5 30.08F ELIZABETHTOWN SUNNY 83 71 68 CALM 30.06S GOLDSBORO CLOUDY 74 71 91 NE8 30.08F GREENVILLE CLOUDY 72 61 68 NE10 30.13S HAVELOCK CLOUDY 75 60 59 NE8 30.11S KENANSVILLE CLOUDY 75 70 83 CALM 30.09S KINSTON CLOUDY 75 66 73 NE5 30.11S NEW BERN CLOUDY 75 61 61 NE9 30.11F RICHLANDS CLOUDY 75 69 81 NE12 30.09S ROCKY MOUNT CLOUDY 73 66 78 E6 30.11F WASHINGTON PTSUNNY 72 62 72 NE7 30.12S WHITEVILLE NOT AVBL $$ AMZ130-135-150-152-154-156-158-170-250-252-270-ANZ085-086-088-633-658-670-252200- MARINE OBSERVATIONS STATION/POSITION TIME TEMP WIND PRES WAVE SWELL AIR SEA DIR/SP/G HT/PER HT/PER (UTC) (F) (DEG/KT/KT) (MB) (FT/S) (FT/S) CHESAPEAKE LIGHT NOT AVBL 64 E VA BEACH 2050 70 76 20/ 12/ 14 1019.5 4/ 8 3/ 8 DUCK 2048 70 77 30/ 9/ 13 1019.6 2 E DUCK 2041 77 N/A 4/11 2/11 OREGON INLET 2048 71 78 20/ 11/ 17 1019.6 13E OREGON INLT 2100 76 N/A 4/ 8 3/ 8 HATTERAS CG 2048 73 80 30/ 11/ 16 1018.9 DIAMOND BUOY 2050 73 85 30/ 17/ 19 1018.3 5/ 9 3/ 9 CAPE LOOKOUT 2100 74 40/ 19/ 21 1018.5 BEAUFORT LAB 2048 75 79 40/ 10/ 14 1018.4 30 SE NEW RVR IN 2008 77 82 60/ 17/ 23 1018.3 30 SE NEW RVR IN 2055 82 N/A 4/ 5 2/11 27 SE WRIGHTSVLE 2008 78 82 60/ 16/ 21 1018.3 5 SE WRIGHTSVLE 2008 78 81 80/ 14/ 17 1019.1 225 S CAPE HAT 2050 82 84 50/ 12/ 14 1016.1 4/10 3/10 41 SE CHARLESTON 2050 81 82 60/ 16/ 19 1015.9 5/11 3/11 $$

USA.gov is the U.S. government's official web portal to all federal, state and local government web resources and services.